Temp
-4 -4 -4 -3 -4 -5 -6 -8 -8 -8 -9 -8 -8 -7 -6 -6 -5 -5 -5 -4 -3 -2 -2 -2 -1 -1 -0 0 1 1 1 1 1 0 1 1 1 2
-4 -4 -4 -4 -4 -5 -7 -8 -9 -9 -9 -9 -9 -9 -8 -6 -6 -5 -5 -4 -4 -3 -3 -2 -1 -1 -1 -0 0 1 1 1 1 1 0 0 -0 -0
-5 -4 -5 -5 -5 -6 -7 -8 -8 -8 -8 -9 -9 -9 -8 -7 -6 -6 -5 -5 -4 -4 -3 -2 -2 -2 -1 -0 -0 0 0 -0 -0 -0 -1 -1 0 -1
-5 -5 -5 -5 -5 -5 -7 -7 -8 -8 -8 -8 -8 -8 -8 -7 -7 -6 -6 -5 -5 -4 -3 -3 -3 -2 -2 -2 -1 -0 -0 -0 -1 -0 -1 -1 -1 0
-5 -6 -6 -5 -6 -5 -6 -7 -7 -7 -8 -8 -8 -8 -8 -8 -7 -6 -6 -6 -5 -5 -4 -4 -3 -3 -3 -2 -2 -1 -1 -1 -1 -1 -1 -1 -1 -1
-6 -6 -6 -6 -6 -6 -6 -6 -6 -7 -7 -7 -8 -8 -8 -8 -7 -7 -7 -6 -6 -5 -5 -4 -4 -4 -3 -3 -3 -2 -1 -1 -1 -1 -1 -1 -1 -1
-6 -6 -6 -6 -6 -6 -6 -6 -6 -6 -7 -7 -7 -7 -7 -7 -7 -7 -7 -6 -6 -6 -6 -6 -6 -4 -5 -4 -5 -4 -3 -3 -3 -2 -2 -2 -1 -1
-6 -7 -7 -7 -7 -7 -7 -6 -6 -7 -7 -7 -7 -7 -7 -7 -7 -7 -7 -7 -7 -6 -7 -7 -7 -6 -6 -5 -5 -3 -4 -4 -4 -4 -3 -3 -3 -3
-7 -7 -7 -7 -7 -7 -7 -7 -7 -7 -7 -7 -7 -7 -7 -7 -8 -7 -8 -8 -7 -7 -7 -7 -7 -7 -6 -6 -5 -5 -5 -4 -4 -4 -4 -4 -4 -4
-7 -7 -8 -8 -8 -8 -8 -8 -8 -8 -8 -8 -8 -8 -8 -7 -7 -8 -8 -7 -7 -7 -7 -8 -7 -7 -7 -7 -6 -6 -6 -6 -6 -6 -5 -6 -6 -6
-8 -8 -8 -8 -8 -9 -8 -8 -8 -8 -8 -8 -8 -8 -8 -8 -8 -8 -8 -8 -8 -8 -8 -8 -8 -8 -8 -8 -8 -7 -7 -7 -6 -6 -7 -7 -6 -6
-8 -8 -9 -9 -9 -9 -9 -9 -9 -9 -9 -9 -8 -9 -9 -9 -8 -8 -9 -8 -8 -8 -8 -8 -8 -8 -8 -8 -8 -7 -7 -7 -7 -7 -7 -7 -6 -6
-9 -9 -9 -9 -9 -10 -10 -10 -10 -10 -10 -10 -9 -9 -9 -9 -9 -9 -9 -9 -9 -9 -9 -9 -9 -9 -9 -8 -8 -8 -8 -8 -8 -7 -7 -7 -7 -7
-10 -10 -10 -10 -10 -10 -10 -11 -11 -11 -11 -11 -11 -10 -10 -10 -11 -11 -11 -10 -10 -10 -10 -10 -10 -10 -10 -9 -9 -9 -8 -8 -8 -8 -8 -8 -7 -7
-10 -10 -10 -10 -11 -11 -11 -11 -11 -11 -12 -12 -11 -11 -11 -11 -12 -12 -12 -12 -11 -11 -11 -11 -11 -11 -10 -10 -10 -10 -10 -10 -9 -9 -9 -9 -8 -8
-11 -11 -11 -11 -11 -11 -12 -12 -12 -12 -12 -13 -13 -12 -12 -12 -13 -13 -13 -13 -12 -12 -12 -12 -12 -11 -11 -11 -11 -11 -11 -10 -10 -10 -10 -10 -9 -9
-11 -11 -12 -12 -12 -12 -12 -13 -13 -13 -13 -13 -13 -13 -14 -14 -14 -13 -13 -13 -13 -13 -13 -13 -13 -13 -12 -12 -12 -12 -12 -11 -11 -11 -11 -11 -11 -10
-12 -12 -12 -13 -13 -13 -13 -14 -14 -14 -14 -14 -14 -14 -14 -15 -15 -15 -15 -15 -14 -14 -14 -14 -14 -13 -13 -13 -14 -13 -13 -13 -12 -12 -12 -12 -12 -12
-13 -13 -13 -13 -14 -14 -14 -14 -15 -15 -15 -15 -15 -15 -15 -15 -15 -16 -16 -16 -16 -16 -15 -15 -15 -15 -15 -15 -14 -15 -15 -14 -14 -14 -14 -14 -13 -13
-13 -14 -14 -14 -15 -15 -15 -16 -16 -16 -16 -16 -16 -16 -16 -16 -16 -16 -16 -17 -17 -17 -17 -16 -16 -16 -16 -16 -16 -16 -15 -16 -15 -15 -15 -15 -15 -15
-14 -15 -15 -15 -16 -16 -16 -16 -16 -16 -16 -17 -17 -17 -17 -17 -17 -17 -17 -17 -17 -17 -17 -17 -17 -18 -18 -18 -18 -18 -17 -16 -17 -17 -17 -16 -16 -16
-15 -16 -16 -16 -17 -17 -17 -17 -17 -17 -17 -17 -17 -18 -18 -18 -18 -18 -18 -18 -18 -18 -18 -18 -19 -19 -19 -19 -19 -19 -19 -19 -19 -19 -18 -18 -18 -18
-17 -17 -17 -17 -18 -18 -18 -18 -18 -18 -18 -18 -18 -18 -18 -19 -19 -19 -19 -19 -19 -19 -19 -20 -20 -20 -20 -20 -20 -20 -20 -20 -20 -21 -21 -21 -21 -21
Height
3023 3019 3013 3004 2996 2987 2978 2972 2968 2966 2965 2964 2963 2963 2962 2962 2961 2959 2960 2960 2965 2969 2974 2978 2983 2988 2993 2998 3004 3009 3013 3014 3017 3014 3022 3026 3031 3024
3021 3016 3011 3003 2995 2987 2978 2972 2969 2966 2964 2963 2962 2961 2961 2961 2961 2961 2961 2957 2961 2966 2970 2975 2978 2982 2987 2991 2996 3000 3004 3007 3009 3012 3015 3015 3016 3021
3019 3014 3009 3003 2995 2987 2980 2973 2970 2968 2966 2962 2962 2961 2961 2960 2960 2960 2961 2959 2958 2963 2966 2970 2974 2977 2981 2985 2990 2994 2997 3000 3003 3005 3009 3012 3013 3017
3017 3013 3008 3002 2996 2989 2982 2976 2971 2969 2966 2964 2962 2961 2960 2959 2960 2961 2962 2962 2961 2961 2960 2966 2970 2973 2976 2980 2984 2987 2991 2995 2999 3002 3005 3008 3008 3011
3015 3012 3007 3002 2997 2992 2985 2979 2973 2969 2966 2964 2961 2960 2960 2959 2958 2960 2960 2961 2962 2961 2962 2962 2965 2968 2971 2976 2979 2981 2983 2989 2992 2995 2998 3001 3003 3004
3013 3011 3006 3002 2998 2993 2987 2982 2977 2972 2967 2964 2961 2960 2959 2958 2958 2959 2959 2959 2960 2961 2961 2961 2962 2963 2967 2968 2968 2974 2979 2981 2985 2989 2991 2994 2996 2997
3012 3009 3005 3001 2998 2993 2989 2984 2980 2976 2971 2967 2963 2961 2960 2958 2958 2959 2959 2958 2959 2959 2960 2959 2958 2961 2963 2963 2960 2966 2965 2972 2977 2981 2983 2985 2987 2989
3009 3007 3004 3001 2997 2994 2990 2985 2981 2977 2974 2971 2967 2964 2962 2959 2959 2959 2958 2958 2959 2959 2959 2960 2959 2959 2960 2960 2961 2963 2965 2968 2970 2974 2976 2977 2979 2981
3007 3005 3002 3000 2997 2994 2990 2987 2983 2979 2976 2973 2970 2968 2965 2962 2960 2960 2958 2958 2957 2956 2956 2956 2956 2957 2957 2957 2957 2959 2961 2963 2965 2967 2969 2969 2971 2973
3003 3002 3000 2998 2996 2993 2991 2987 2984 2980 2977 2975 2972 2970 2967 2965 2963 2962 2960 2959 2957 2955 2955 2955 2954 2954 2954 2954 2955 2956 2958 2959 2961 2962 2963 2964 2965 2966
3001 2999 2997 2996 2994 2992 2990 2987 2984 2981 2978 2976 2974 2971 2968 2966 2963 2962 2960 2959 2958 2956 2955 2954 2953 2953 2953 2952 2952 2953 2953 2954 2955 2957 2958 2959 2959 2960
2997 2996 2995 2993 2991 2989 2987 2986 2983 2981 2978 2976 2973 2970 2968 2966 2963 2961 2959 2957 2956 2955 2954 2954 2953 2952 2950 2948 2950 2951 2952 2952 2953 2953 2953 2953 2954 2954
2994 2993 2991 2990 2988 2987 2985 2983 2981 2979 2977 2975 2972 2970 2967 2964 2962 2960 2957 2955 2953 2951 2951 2950 2949 2949 2948 2948 2948 2948 2947 2947 2947 2948 2949 2949 2949 2949
2990 2989 2987 2986 2985 2983 2981 2980 2978 2976 2974 2972 2970 2968 2965 2962 2960 2957 2955 2953 2951 2950 2948 2947 2946 2945 2944 2943 2943 2942 2943 2943 2944 2945 2944 2944 2943 2943
2986 2985 2984 2982 2981 2979 2978 2976 2975 2973 2971 2969 2966 2964 2961 2958 2956 2954 2952 2950 2949 2947 2945 2944 2943 2941 2940 2939 2938 2938 2938 2938 2937 2937 2937 2936 2936 2935
2981 2980 2979 2978 2976 2975 2973 2972 2970 2968 2966 2963 2961 2959 2956 2954 2951 2949 2947 2946 2945 2943 2942 2940 2939 2937 2936 2935 2934 2934 2932 2931 2930 2929 2929 2929 2928 2928
2975 2974 2973 2972 2971 2970 2968 2966 2965 2963 2961 2959 2956 2953 2951 2948 2946 2944 2942 2940 2939 2938 2937 2935 2934 2933 2931 2930 2929 2928 2926 2925 2925 2924 2923 2921 2919 2917
2969 2968 2967 2966 2965 2964 2962 2961 2959 2958 2956 2953 2951 2948 2945 2943 2940 2939 2936 2934 2932 2930 2929 2928 2927 2925 2925 2924 2923 2921 2920 2918 2917 2916 2915 2914 2912 2910
2963 2962 2961 2960 2959 2958 2956 2955 2954 2952 2950 2947 2945 2942 2940 2938 2935 2933 2931 2929 2927 2925 2923 2921 2920 2918 2916 2914 2913 2914 2912 2910 2909 2907 2905 2904 2903 2901
2956 2955 2955 2954 2953 2951 2950 2949 2947 2945 2943 2941 2939 2936 2934 2931 2929 2927 2925 2923 2921 2919 2917 2915 2914 2911 2910 2908 2906 2904 2904 2902 2900 2898 2897 2895 2893 2891
2949 2949 2948 2947 2946 2945 2944 2942 2941 2939 2937 2934 2932 2930 2928 2925 2923 2921 2919 2917 2915 2913 2910 2908 2907 2906 2903 2901 2899 2896 2894 2892 2890 2889 2886 2884 2882 2880
2943 2942 2942 2941 2940 2938 2937 2935 2934 2932 2930 2927 2925 2923 2921 2919 2917 2915 2913 2910 2908 2906 2904 2901 2899 2897 2895 2893 2891 2889 2887 2885 2882 2878 2875 2872 2870 2867
2935 2935 2934 2933 2932 2931 2930 2928 2926 2925 2922 2920 2918 2916 2914 2912 2910 2908 2906 2904 2902 2900 2897 2895 2893 2890 2888 2885 2883 2880 2877 2875 2872 2870 2867 2862 2858 2854
Wind_Speed
23 26 27 29 35 32 28 23 18 14 9 5 6 9 15 12 9 12 15 20 26 22 34 33 31 30 34 34 38 42 45 50 44 48 36 44 43 46
22 24 25 27 31 29 24 16 17 15 11 7 3 6 11 13 9 10 16 10 24 28 21 24 28 30 28 28 31 32 37 40 41 44 41 37 31 33
20 22 23 24 28 27 22 15 14 14 14 11 11 9 10 10 10 11 11 10 4 18 22 29 22 21 26 30 30 29 27 24 22 22 27 24 30 27
19 20 20 21 23 26 21 17 14 14 12 9 5 7 10 16 16 16 11 11 11 8 15 18 23 17 15 23 30 29 27 26 24 23 24 27 28 29
17 18 18 19 20 19 22 21 16 14 13 13 12 9 9 9 8 7 10 13 7 7 14 6 18 27 22 23 24 29 28 28 29 27 26 25 24 24
16 16 15 16 17 18 17 17 20 19 16 12 9 9 9 9 8 10 11 9 9 12 9 15 24 12 21 18 11 31 29 27 29 29 29 26 28 25
16 16 15 15 15 16 16 16 18 19 20 19 15 9 8 10 11 11 12 11 10 12 8 11 10 19 16 19 15 20 15 29 28 30 30 29 29 29
15 15 15 14 14 14 15 16 17 18 19 19 18 15 13 9 11 13 14 15 13 12 11 13 11 12 16 17 16 19 20 22 25 27 29 30 29 30
15 15 15 14 13 13 14 15 16 17 18 19 18 16 15 12 10 9 10 14 15 14 13 14 13 15 16 19 21 25 27 19 19 21 24 29 36 38
14 15 15 14 13 13 14 15 16 17 17 17 17 16 14 11 10 8 8 7 7 8 10 10 13 14 14 18 20 23 24 24 23 25 28 29 30 30
15 15 15 14 13 13 13 14 15 15 15 15 15 14 15 15 14 12 11 9 9 9 8 8 8 9 9 10 11 14 14 15 19 21 22 22 22 22
16 16 15 14 14 14 14 14 15 15 16 17 18 18 17 16 16 16 15 13 12 12 10 10 10 11 11 10 11 12 14 16 16 17 19 19 19 20
17 16 16 15 15 15 16 16 15 15 15 16 18 19 20 20 19 17 16 16 17 16 15 14 13 13 13 13 14 14 14 14 15 16 17 18 19 20
17 17 16 16 17 17 17 17 16 17 17 18 18 20 21 21 20 19 18 18 18 18 18 19 19 18 18 18 17 18 18 18 18 19 19 20 21 22
18 17 17 18 18 18 18 18 19 19 19 20 22 23 23 22 21 20 18 18 18 18 19 19 20 20 21 21 21 21 21 21 21 22 23 23 24 26
19 19 19 19 20 19 19 19 20 20 21 24 24 24 23 23 22 21 20 19 18 18 18 18 19 20 20 21 22 22 23 23 25 25 26 26 27 28
21 21 21 21 21 22 21 21 21 21 23 25 26 26 24 23 22 22 21 21 20 20 19 19 19 19 21 22 22 23 24 24 25 25 26 27 29 30
22 22 21 21 22 21 22 22 22 24 24 25 28 27 25 24 23 22 21 21 22 22 21 21 22 23 22 20 21 23 25 25 25 26 27 28 29 31
24 23 23 22 23 24 23 23 24 24 26 28 26 25 25 24 23 22 21 21 21 22 22 22 22 23 24 25 27 22 25 26 27 27 28 29 30 30
26 25 24 23 24 25 24 24 24 26 26 26 25 24 24 24 23 23 22 22 22 22 22 22 22 23 24 24 24 27 26 26 28 29 29 29 31 31
26 25 25 24 24 24 24 26 26 26 27 26 25 24 23 23 23 23 23 22 23 23 24 24 23 23 23 25 26 27 28 30 29 29 31 32 32 32
26 26 25 24 26 27 26 25 26 27 26 26 25 24 23 23 23 22 23 23 23 24 24 25 25 25 26 25 26 27 27 28 29 31 33 34 34 35
27 24 26 26 26 24 25 27 27 26 25 24 24 23 23 23 23 23 23 23 23 24 24 24 25 26 26 28 28 29 29 29 30 30 29 32 34 36
Wind_Direction
328 328 333 343 347 340 335 333 336 323 296 253 224 286 271 290 317 240 281 266 238 239 237 240 239 238 240 242 244 244 248 255 246 259 250 250 234 230
330 332 337 345 353 347 346 347 349 353 341 247 279 342 284 269 294 293 300 317 215 228 229 237 246 248 245 239 240 243 245 251 256 252 254 245 254 251
331 334 341 348 359 356 358 356 345 345 346 315 267 300 315 285 285 315 335 303 262 207 228 240 233 238 240 241 239 237 240 245 256 255 263 245 246 252
331 333 343 350 358 5 358 3 6 352 348 347 337 308 311 301 290 293 322 334 328 282 218 208 210 222 226 231 230 232 237 241 236 236 237 246 249 251
331 332 342 351 356 359 14 10 4 356 343 334 329 321 294 294 279 241 278 291 311 317 270 240 231 236 249 232 233 231 228 228 227 225 225 233 238 244
328 331 342 349 353 360 5 11 19 22 21 5 339 334 317 313 271 244 261 250 272 293 277 273 259 275 227 222 206 228 220 216 221 225 230 232 243 245
324 329 338 347 352 357 2 13 22 21 27 30 26 358 328 313 304 276 244 242 274 271 249 285 280 273 263 266 288 254 226 211 223 230 234 237 244 248
319 326 333 342 349 356 359 9 17 21 22 21 22 26 24 357 301 296 283 270 268 228 255 267 280 275 256 248 235 259 267 256 237 246 245 250 252 253
312 318 326 334 339 348 356 2 9 14 15 14 14 15 14 15 22 17 311 297 291 281 269 257 256 259 265 259 250 239 246 245 233 233 238 243 249 250
304 309 315 322 328 336 343 353 1 7 6 2 360 360 3 5 360 358 353 344 333 320 302 285 265 257 254 242 236 238 244 246 246 248 253 257 259 260
303 303 305 309 315 322 327 336 344 351 355 355 352 350 347 347 347 343 336 332 325 322 316 308 305 298 289 278 267 254 252 250 248 252 254 254 254 255
297 295 297 301 305 309 315 321 326 334 339 342 345 345 343 339 333 327 326 322 318 313 307 302 293 288 288 286 269 256 252 251 250 251 254 256 256 256
287 289 291 293 297 301 306 312 319 324 328 332 335 336 335 331 326 320 315 311 311 309 306 300 295 289 283 278 274 272 269 265 264 261 259 260 263 265
283 285 289 293 296 295 297 300 305 310 317 322 327 327 324 321 316 312 308 306 303 300 298 296 295 292 288 285 281 277 275 272 268 267 266 265 265 263
280 282 287 291 291 289 288 291 295 301 307 315 320 321 318 313 309 306 300 295 293 292 290 289 287 285 284 284 283 281 279 276 275 274 273 272 271 271
275 280 285 288 287 286 286 287 291 297 305 313 316 315 311 308 306 304 301 298 295 290 287 285 284 284 283 281 279 277 277 278 279 279 279 278 276 273
275 278 284 287 285 285 286 288 290 295 305 311 315 313 310 307 306 304 302 299 298 296 295 293 290 287 283 282 281 279 278 278 278 279 280 282 283 283
272 276 279 283 283 283 284 285 287 294 300 306 311 308 306 306 305 304 303 302 301 300 298 297 296 294 287 281 283 283 283 283 282 282 283 284 285 286
272 275 277 280 281 282 282 283 287 293 299 305 304 303 303 302 302 303 303 302 301 300 300 299 297 295 294 293 293 288 290 289 289 289 289 289 288 288
272 273 275 277 281 282 282 284 289 296 300 302 301 300 300 299 300 300 301 301 301 300 299 299 298 297 295 295 294 293 291 292 292 291 291 291 291 291
271 272 274 276 280 281 281 286 291 297 300 299 299 299 298 298 299 300 300 300 301 302 301 301 300 298 298 298 299 300 300 299 298 297 297 297 297 297
269 271 271 272 279 281 282 285 291 296 296 297 297 297 297 298 298 299 300 301 302 302 303 303 303 303 303 302 302 302 301 303 303 304 305 302 304 304
271 266 272 274 280 279 282 288 291 293 294 294 295 295 297 298 299 300 301 301 301 301 301 301 302 303 305 305 307 307 308 308 309 309 311 310 312 312